QPF
0.00 0.00 0.00 0.00 0.00 0.00 0.00 0.00 0.00 0.00 0.00 0.00 0.00 0.00 0.00 0.00 0.00 0.00 0.00 0.00 0.00 0.00 0.00 0.00 0.00 0.00 0.00 0.00 0.00 0.00 0.00 0.00 0.00 0.00 0.00 0.00 0.00 0.00 0.00 0.00 0.00 0.00 0.00 0.00 0.00 0.00 0.00 0.00 0.00
0.00 0.00 0.00 0.00 0.00 0.00 0.00 0.00 0.00 0.00 0.00 0.00 0.00 0.00 0.00 0.00 0.00 0.00 0.00 0.00 0.00 0.00 0.00 0.00 0.00 0.00 0.00 0.00 0.00 0.00 0.00 0.00 0.00 0.00 0.00 0.00 0.00 0.00 0.00 0.00 0.00 0.00 0.00 0.00 0.00 0.00 0.00 0.00 0.00
0.00 0.00 0.00 0.00 0.00 0.00 0.00 0.00 0.00 0.00 0.00 0.00 0.00 0.00 0.00 0.00 0.00 0.00 0.00 0.00 0.00 0.00 0.00 0.00 0.00 0.00 0.00 0.00 0.00 0.00 0.00 0.00 0.00 0.00 0.00 0.00 0.00 0.00 0.00 0.00 0.00 0.00 0.00 0.00 0.00 0.00 0.00 0.00 0.00
0.00 0.00 0.00 0.00 0.00 0.00 0.00 0.00 0.00 0.00 0.00 0.00 0.00 0.00 0.00 0.00 0.00 0.00 0.00 0.00 0.00 0.00 0.00 0.00 0.00 0.01 0.01 0.00 0.00 0.00 0.00 0.00 0.00 0.00 0.00 0.00 0.00 0.00 0.00 0.00 0.00 0.00 0.00 0.00 0.00 0.00 0.00 0.00 0.00
0.00 0.00 0.00 0.00 0.00 0.00 0.00 0.00 0.00 0.00 0.00 0.00 0.00 0.00 0.00 0.00 0.00 0.00 0.00 0.00 0.00 0.00 0.00 0.00 0.00 0.01 0.01 0.01 0.00 0.00 0.00 0.00 0.00 0.00 0.00 0.00 0.00 0.00 0.00 0.00 0.00 0.00 0.00 0.00 0.00 0.00 0.00 0.00 0.00
0.00 0.00 0.00 0.00 0.00 0.00 0.00 0.00 0.00 0.00 0.00 0.00 0.00 0.00 0.00 0.00 0.00 0.00 0.00 0.00 0.00 0.00 0.00 0.00 0.00 0.01 0.01 0.01 0.01 0.01 0.00 0.00 0.00 0.00 0.00 0.00 0.00 0.00 0.00 0.00 0.00 0.00 0.00 0.00 0.00 0.00 0.00 0.00 0.00
0.00 0.00 0.00 0.00 0.00 0.00 0.00 0.00 0.00 0.00 0.00 0.00 0.00 0.00 0.00 0.00 0.00 0.00 0.00 0.00 0.00 0.00 0.00 0.00 0.00 0.01 0.01 0.01 0.01 0.01 0.00 0.00 0.00 0.00 0.00 0.00 0.00 0.00 0.00 0.00 0.00 0.00 0.00 0.00 0.00 0.00 0.00 0.00 0.00
0.00 0.00 0.00 0.00 0.00 0.00 0.00 0.00 0.00 0.00 0.00 0.00 0.00 0.00 0.00 0.00 0.00 0.00 0.00 0.00 0.00 0.00 0.00 0.00 0.00 0.00 0.00 0.01 0.01 0.01 0.01 0.00 0.00 0.00 0.00 0.00 0.00 0.00 0.00 0.00 0.00 0.00 0.00 0.00 0.00 0.00 0.00 0.00 0.00
0.00 0.00 0.00 0.00 0.00 0.00 0.00 0.00 0.00 0.00 0.00 0.00 0.00 0.00 0.00 0.00 0.00 0.00 0.00 0.00 0.00 0.00 0.00 0.00 0.00 0.00 0.00 0.00 0.00 0.01 0.01 0.01 0.00 0.00 0.00 0.00 0.00 0.00 0.00 0.00 0.00 0.00 0.00 0.00 0.00 0.00 0.00 0.00 0.00
0.00 0.00 0.00 0.00 0.00 0.00 0.00 0.00 0.00 0.00 0.00 0.00 0.00 0.00 0.00 0.00 0.00 0.00 0.00 0.00 0.00 0.00 0.00 0.00 0.00 0.00 0.00 0.00 0.00 0.00 0.00 0.00 0.00 0.00 0.00 0.00 0.00 0.00 0.00 0.00 0.00 0.00 0.00 0.00 0.00 0.00 0.00 0.00 0.00
0.00 0.00 0.00 0.00 0.00 0.00 0.00 0.00 0.00 0.00 0.00 0.00 0.00 0.00 0.00 0.00 0.00 0.00 0.00 0.00 0.00 0.00 0.00 0.00 0.00 0.00 0.00 0.00 0.00 0.00 0.00 0.00 0.00 0.00 0.00 0.00 0.00 0.00 0.00 0.00 0.00 0.00 0.00 0.00 0.00 0.00 0.00 0.00 0.00
0.00 0.00 0.00 0.00 0.00 0.00 0.00 0.00 0.00 0.00 0.00 0.00 0.00 0.00 0.00 0.00 0.00 0.00 0.00 0.00 0.00 0.00 0.00 0.00 0.00 0.00 0.00 0.00 0.00 0.00 0.00 0.00 0.00 0.00 0.00 0.00 0.00 0.00 0.00 0.00 0.00 0.00 0.00 0.00 0.00 0.00 0.00 0.00 0.00
0.00 0.00 0.00 0.00 0.00 0.00 0.00 0.00 0.00 0.00 0.00 0.00 0.00 0.00 0.00 0.00 0.00 0.00 0.00 0.00 0.00 0.00 0.00 0.00 0.00 0.00 0.00 0.00 0.00 0.00 0.00 0.00 0.00 0.00 0.00 0.00 0.00 0.00 0.00 0.00 0.00 0.00 0.00 0.00 0.00 0.00 0.00 0.00 0.00
0.00 0.00 0.00 0.00 0.00 0.00 0.00 0.00 0.00 0.00 0.00 0.00 0.00 0.00 0.00 0.00 0.00 0.00 0.00 0.00 0.00 0.00 0.00 0.00 0.00 0.00 0.00 0.00 0.00 0.00 0.00 0.00 0.00 0.00 0.00 0.00 0.00 0.00 0.00 0.00 0.00 0.00 0.00 0.00 0.00 0.00 0.00 0.00 0.00
0.00 0.00 0.00 0.00 0.00 0.00 0.00 0.00 0.00 0.00 0.00 0.00 0.00 0.00 0.00 0.00 0.00 0.00 0.00 0.00 0.00 0.00 0.00 0.00 0.00 0.00 0.00 0.00 0.00 0.00 0.00 0.00 0.00 0.00 0.00 0.00 0.00 0.00 0.00 0.00 0.00 0.00 0.00 0.00 0.00 0.00 0.00 0.00 0.00
0.00 0.00 0.00 0.00 0.00 0.00 0.00 0.00 0.00 0.00 0.00 0.00 0.00 0.00 0.00 0.00 0.00 0.00 0.00 0.00 0.00 0.00 0.00 0.00 0.00 0.00 0.00 0.00 0.00 0.00 0.00 0.00 0.00 0.00 0.00 0.00 0.00 0.00 0.00 0.00 0.00 0.00 0.00 0.00 0.00 0.00 0.00 0.00 0.00
0.00 0.00 0.00 0.00 0.00 0.00 0.00 0.00 0.00 0.00 0.00 0.00 0.00 0.00 0.00 0.00 0.00 0.00 0.00 0.00 0.00 0.00 0.00 0.00 0.00 0.00 0.00 0.00 0.00 0.00 0.00 0.00 0.00 0.00 0.00 0.00 0.00 0.00 0.00 0.00 0.00 0.00 0.00 0.00 0.00 0.00 0.00 0.00 0.00
0.00 0.00 0.00 0.00 0.00 0.00 0.00 0.00 0.00 0.00 0.00 0.00 0.00 0.00 0.00 0.00 0.00 0.00 0.00 0.00 0.00 0.00 0.00 0.00 0.00 0.00 0.00 0.00 0.00 0.00 0.00 0.00 0.00 0.00 0.00 0.00 0.00 0.00 0.00 0.00 0.00 0.00 0.00 0.00 0.00 0.00 0.00 0.00 0.00
0.00 0.00 0.00 0.00 0.00 0.00 0.00 0.00 0.00 0.00 0.00 0.00 0.00 0.00 0.00 0.00 0.00 0.00 0.00 0.00 0.00 0.00 0.00 0.00 0.00 0.00 0.00 0.00 0.00 0.00 0.00 0.00 0.00 0.00 0.00 0.00 0.00 0.00 0.00 0.00 0.00 0.00 0.00 0.00 0.00 0.00 0.00 0.00 0.00
0.00 0.00 0.00 0.00 0.00 0.00 0.00 0.00 0.00 0.00 0.00 0.00 0.00 0.00 0.00 0.00 0.00 0.00 0.00 0.00 0.00 0.00 0.00 0.00 0.00 0.00 0.00 0.00 0.00 0.00 0.00 0.00 0.00 0.00 0.00 0.00 0.00 0.00 0.00 0.00 0.00 0.00 0.00 0.00 0.00 0.00 0.00 0.00 0.00
0.00 0.00 0.00 0.00 0.00 0.00 0.00 0.00 0.00 0.00 0.00 0.00 0.00 0.00 0.00 0.00 0.00 0.00 0.00 0.00 0.00 0.00 0.00 0.00 0.00 0.00 0.00 0.00 0.00 0.00 0.00 0.00 0.00 0.00 0.00 0.00 0.00 0.00 0.00 0.00 0.00 0.00 0.00 0.00 0.00 0.00 0.00 0.00 0.00
0.00 0.00 0.00 0.00 0.00 0.00 0.00 0.00 0.00 0.00 0.00 0.00 0.00 0.00 0.00 0.00 0.00 0.00 0.00 0.00 0.00 0.00 0.00 0.00 0.00 0.00 0.00 0.00 0.00 0.00 0.00 0.00 0.00 0.00 0.00 0.00 0.00 0.00 0.00 0.00 0.00 0.00 0.00 0.00 0.00 0.00 0.00 0.00 0.00
0.00 0.00 0.00 0.00 0.00 0.00 0.00 0.00 0.00 0.00 0.00 0.00 0.00 0.00 0.00 0.00 0.00 0.00 0.00 0.00 0.00 0.00 0.00 0.00 0.00 0.00 0.00 0.00 0.00 0.00 0.00 0.00 0.00 0.00 0.00 0.00 0.00 0.00 0.00 0.00 0.00 0.00 0.00 0.00 0.00 0.00 0.00 0.00 0.00
0.00 0.00 0.00 0.00 0.00 0.00 0.00 0.00 0.00 0.00 0.00 0.00 0.00 0.00 0.00 0.00 0.00 0.00 0.00 0.00 0.00 0.00 0.00 0.00 0.00 0.00 0.00 0.00 0.00 0.00 0.00 0.00 0.00 0.00 0.00 0.00 0.00 0.00 0.00 0.00 0.00 0.00 0.00 0.00 0.00 0.00 0.00 0.00 0.00
0.00 0.00 0.00 0.00 0.00 0.00 0.00 0.00 0.00 0.00 0.00 0.00 0.00 0.00 0.00 0.00 0.00 0.00 0.00 0.00 0.00 0.00 0.00 0.00 0.00 0.00 0.00 0.00 0.00 0.00 0.00 0.00 0.00 0.00 0.00 0.00 0.00 0.00 0.00 0.00 0.00 0.00 0.00 0.00 0.00 0.00 0.00 0.00 0.00
0.00 0.00 0.00 0.00 0.00 0.00 0.00 0.00 0.00 0.00 0.00 0.00 0.00 0.00 0.00 0.00 0.00 0.00 0.00 0.00 0.00 0.00 0.00 0.00 0.00 0.00 0.00 0.00 0.00 0.00 0.00 0.00 0.00 0.00 0.00 0.00 0.00 0.00 0.00 0.00 0.00 0.00 0.00 0.00 0.00 0.00 0.00 0.00 0.00
0.00 0.00 0.00 0.00 0.00 0.00 0.00 0.00 0.00 0.00 0.00 0.00 0.00 0.00 0.00 0.00 0.00 0.00 0.00 0.00 0.00 0.00 0.00 0.00 0.00 0.00 0.00 0.00 0.00 0.00 0.00 0.00 0.00 0.00 0.00 0.00 0.00 0.00 0.00 0.00 0.00 0.00 0.00 0.00 0.00 0.00 0.00 0.00 0.00
0.00 0.00 0.00 0.00 0.00 0.00 0.00 0.00 0.00 0.00 0.00 0.00 0.00 0.00 0.00 0.00 0.00 0.00 0.00 0.00 0.00 0.00 0.00 0.00 0.00 0.00 0.00 0.00 0.00 0.00 0.00 0.00 0.00 0.00 0.00 0.00 0.00 0.00 0.00 0.00 0.00 0.00 0.00 0.00 0.00 0.00 0.00 0.00 0.00
0.00 0.00 0.00 0.00 0.00 0.00 0.00 0.00 0.00 0.00 0.00 0.00 0.00 0.00 0.00 0.00 0.00 0.00 0.00 0.00 0.00 0.00 0.00 0.00 0.00 0.00 0.00 0.00 0.00 0.00 0.00 0.00 0.00 0.00 0.00 0.00 0.00 0.00 0.00 0.00 0.00 0.00 0.00 0.00 0.00 0.00 0.00 0.00 0.00
0.00 0.00 0.00 0.00 0.00 0.00 0.00 0.00 0.00 0.00 0.00 0.00 0.00 0.00 0.00 0.00 0.00 0.00 0.00 0.00 0.00 0.00 0.00 0.00 0.00 0.00 0.00 0.00 0.00 0.00 0.00 0.00 0.00 0.00 0.00 0.00 0.00 0.00 0.00 0.00 0.00 0.00 0.00 0.00 0.00 0.00 0.00 0.00 0.00
MSLP
1014.40 1015.23 1016.25 1017.32 1018.31 1019.09 1019.59 1019.78 1019.69 1019.41 1019.04 1018.68 1018.38 1018.17 1018.04 1017.95 1017.84 1017.67 1017.44 1017.16 1016.90 1016.73 1016.70 1016.85 1017.20 1017.71 1018.32 1018.95 1019.53 1020.03 1020.42 1020.71 1020.95 1021.16 1021.40 1021.69 1022.03 1022.40 1022.76 1023.09 1023.36 1023.55 1023.66 1023.71 1023.72 1023.72 1023.73 1023.76 1023.81
1014.81 1015.81 1016.93 1018.04 1018.98 1019.63 1019.93 1019.88 1019.54 1019.02 1018.44 1017.92 1017.51 1017.25 1017.10 1017.03 1016.96 1016.85 1016.69 1016.49 1016.32 1016.23 1016.29 1016.53 1016.97 1017.56 1018.23 1018.92 1019.56 1020.10 1020.53 1020.85 1021.11 1021.34 1021.59 1021.89 1022.22 1022.58 1022.94 1023.26 1023.53 1023.72 1023.84 1023.91 1023.95 1023.98 1024.02 1024.08 1024.15
1015.34 1016.46 1017.63 1018.70 1019.53 1020.01 1020.09 1019.80 1019.24 1018.52 1017.79 1017.16 1016.70 1016.42 1016.29 1016.27 1016.26 1016.23 1016.15 1016.04 1015.96 1015.96 1016.11 1016.43 1016.93 1017.56 1018.27 1018.99 1019.64 1020.19 1020.62 1020.95 1021.22 1021.46 1021.71 1022.00 1022.32 1022.66 1023.00 1023.30 1023.55 1023.74 1023.87 1023.97 1024.04 1024.11 1024.19 1024.29 1024.41
1015.98 1017.15 1018.30 1019.27 1019.94 1020.22 1020.09 1019.60 1018.86 1018.00 1017.19 1016.52 1016.06 1015.81 1015.74 1015.77 1015.84 1015.89 1015.89 1015.87 1015.88 1015.96 1016.17 1016.54 1017.07 1017.71 1018.40 1019.09 1019.71 1020.23 1020.64 1020.97 1021.23 1021.48 1021.74 1022.03 1022.34 1022.66 1022.97 1023.25 1023.48 1023.66 1023.81 1023.93 1024.04 1024.15 1024.29 1024.45 1024.61
1016.67 1017.82 1018.89 1019.72 1020.20 1020.28 1019.95 1019.31 1018.46 1017.55 1016.73 1016.09 1015.68 1015.50 1015.50 1015.60 1015.74 1015.86 1015.93 1015.98 1016.05 1016.19 1016.44 1016.81 1017.32 1017.92 1018.55 1019.17 1019.72 1020.18 1020.56 1020.87 1021.14 1021.41 1021.68 1021.98 1022.29 1022.61 1022.90 1023.16 1023.38 1023.56 1023.72 1023.86 1024.01 1024.18 1024.37 1024.58 1024.80
1017.33 1018.41 1019.34 1020.00 1020.29 1020.18 1019.72 1018.98 1018.09 1017.21 1016.45 1015.89 1015.58 1015.49 1015.56 1015.73 1015.91 1016.08 1016.19 1016.29 1016.39 1016.55 1016.80 1017.15 1017.61 1018.13 1018.66 1019.17 1019.64 1020.03 1020.37 1020.67 1020.96 1021.26 1021.58 1021.91 1022.26 1022.58 1022.88 1023.13 1023.34 1023.52 1023.68 1023.85 1024.03 1024.24 1024.48 1024.73 1025.00
1017.89 1018.85 1019.62 1020.09 1020.19 1019.94 1019.38 1018.62 1017.77 1016.97 1016.32 1015.89 1015.69 1015.69 1015.82 1016.03 1016.23 1016.40 1016.53 1016.63 1016.74 1016.90 1017.13 1017.44 1017.83 1018.25 1018.68 1019.09 1019.46 1019.80 1020.10 1020.41 1020.73 1021.09 1021.48 1021.88 1022.27 1022.63 1022.94 1023.19 1023.40 1023.57 1023.74 1023.92 1024.13 1024.37 1024.63 1024.92 1025.21
1018.28 1019.10 1019.69 1019.97 1019.92 1019.56 1018.96 1018.22 1017.45 1016.78 1016.28 1015.99 1015.89 1015.96 1016.13 1016.33 1016.52 1016.67 1016.77 1016.86 1016.96 1017.10 1017.31 1017.59 1017.91 1018.26 1018.61 1018.93 1019.23 1019.52 1019.82 1020.15 1020.53 1020.96 1021.43 1021.90 1022.35 1022.76 1023.09 1023.35 1023.56 1023.73 1023.89 1024.08 1024.29 1024.54 1024.83 1025.12 1025.42
1018.49 1019.15 1019.56 1019.67 1019.49 1019.06 1018.45 1017.78 1017.13 1016.60 1016.24 1016.07 1016.06 1016.17 1016.33 1016.50 1016.64 1016.73 1016.79 1016.85 1016.94 1017.08 1017.28 1017.54 1017.84 1018.15 1018.45 1018.73 1019.00 1019.27 1019.59 1019.96 1020.40 1020.90 1021.44 1021.99 1022.50 1022.94 1023.30 1023.57 1023.78 1023.95 1024.11 1024.29 1024.50 1024.75 1025.03 1025.33 1025.62
1018.55 1019.05 1019.28 1019.25 1018.96 1018.49 1017.91 1017.31 1016.78 1016.38 1016.14 1016.06 1016.09 1016.20 1016.33 1016.43 1016.49 1016.51 1016.53 1016.56 1016.65 1016.80 1017.03 1017.32 1017.64 1017.95 1018.25 1018.53 1018.80 1019.09 1019.43 1019.85 1020.34 1020.91 1021.51 1022.11 1022.66 1023.14 1023.51 1023.79 1024.00 1024.16 1024.32 1024.49 1024.70 1024.95 1025.22 1025.50 1025.77
1018.52 1018.86 1018.94 1018.78 1018.42 1017.93 1017.37 1016.85 1016.42 1016.13 1015.97 1015.94 1015.98 1016.05 1016.10 1016.12 1016.09 1016.04 1016.01 1016.03 1016.13 1016.33 1016.62 1016.96 1017.34 1017.71 1018.05 1018.37 1018.68 1019.00 1019.37 1019.82 1020.35 1020.94 1021.58 1022.20 1022.78 1023.27 1023.65 1023.94 1024.15 1024.32 1024.48 1024.65 1024.86 1025.10 1025.36 1025.62 1025.87
1018.48 1018.68 1018.64 1018.38 1017.96 1017.46 1016.94 1016.48 1016.12 1015.89 1015.78 1015.74 1015.75 1015.75 1015.72 1015.64 1015.53 1015.41 1015.35 1015.37 1015.50 1015.76 1016.12 1016.55 1017.01 1017.46 1017.88 1018.26 1018.61 1018.97 1019.37 1019.84 1020.37 1020.97 1021.59 1022.21 1022.78 1023.27 1023.66 1023.96 1024.18 1024.37 1024.54 1024.73 1024.94 1025.17 1025.42 1025.67 1025.89
1018.53 1018.60 1018.46 1018.13 1017.68 1017.17 1016.69 1016.27 1015.95 1015.75 1015.63 1015.57 1015.51 1015.43 1015.31 1015.14 1014.95 1014.79 1014.70 1014.73 1014.89 1015.21 1015.64 1016.15 1016.70 1017.24 1017.73 1018.18 1018.58 1018.98 1019.39 1019.84 1020.36 1020.92 1021.51 1022.09 1022.64 1023.11 1023.50 1023.82 1024.07 1024.28 1024.49 1024.70 1024.93 1025.17 1025.41 1025.63 1025.83
1018.69 1018.67 1018.46 1018.09 1017.63 1017.13 1016.67 1016.28 1015.98 1015.77 1015.62 1015.50 1015.38 1015.22 1015.01 1014.77 1014.53 1014.33 1014.22 1014.25 1014.44 1014.79 1015.26 1015.83 1016.44 1017.04 1017.60 1018.09 1018.54 1018.95 1019.36 1019.79 1020.26 1020.76 1021.29 1021.82 1022.33 1022.78 1023.18 1023.51 1023.80 1024.06 1024.31 1024.56 1024.81 1025.07 1025.30 1025.50 1025.66
1018.97 1018.88 1018.63 1018.25 1017.81 1017.34 1016.91 1016.53 1016.23 1015.99 1015.79 1015.62 1015.42 1015.19 1014.93 1014.64 1014.36 1014.14 1014.02 1014.04 1014.22 1014.56 1015.04 1015.62 1016.24 1016.87 1017.45 1017.98 1018.44 1018.86 1019.25 1019.64 1020.05 1020.49 1020.95 1021.42 1021.88 1022.31 1022.71 1023.08 1023.41 1023.72 1024.02 1024.31 1024.59 1024.85 1025.08 1025.26 1025.38
1019.29 1019.18 1018.92 1018.57 1018.16 1017.74 1017.34 1016.98 1016.66 1016.39 1016.14 1015.91 1015.66 1015.38 1015.08 1014.77 1014.48 1014.25 1014.11 1014.10 1014.25 1014.54 1014.97 1015.51 1016.10 1016.70 1017.28 1017.81 1018.27 1018.69 1019.05 1019.41 1019.76 1020.12 1020.51 1020.91 1021.33 1021.74 1022.14 1022.53 1022.91 1023.26 1023.61 1023.94 1024.24 1024.51 1024.73 1024.88 1024.97
1019.59 1019.47 1019.25 1018.96 1018.62 1018.25 1017.89 1017.54 1017.21 1016.89 1016.60 1016.31 1016.02 1015.73 1015.43 1015.13 1014.85 1014.62 1014.46 1014.42 1014.50 1014.71 1015.05 1015.49 1016.00 1016.55 1017.09 1017.60 1018.05 1018.45 1018.80 1019.11 1019.41 1019.71 1020.02 1020.36 1020.72 1021.10 1021.49 1021.89 1022.29 1022.69 1023.07 1023.42 1023.73 1024.00 1024.21 1024.34 1024.39
1019.76 1019.68 1019.53 1019.32 1019.07 1018.77 1018.45 1018.11 1017.76 1017.41 1017.06 1016.74 1016.43 1016.14 1015.86 1015.60 1015.36 1015.15 1014.99 1014.90 1014.90 1015.01 1015.23 1015.55 1015.96 1016.42 1016.90 1017.38 1017.81 1018.20 1018.53 1018.81 1019.05 1019.29 1019.53 1019.79 1020.09 1020.42 1020.78 1021.17 1021.57 1021.97 1022.37 1022.73 1023.04 1023.30 1023.50 1023.61 1023.65
1019.77 1019.76 1019.70 1019.60 1019.44 1019.23 1018.94 1018.61 1018.22 1017.82 1017.44 1017.08 1016.76 1016.50 1016.27 1016.07 1015.89 1015.73 1015.58 1015.46 1015.39 1015.39 1015.49 1015.68 1015.97 1016.34 1016.76 1017.19 1017.60 1017.97 1018.28 1018.53 1018.72 1018.88 1019.04 1019.22 1019.44 1019.69 1020.00 1020.35 1020.73 1021.11 1021.49 1021.84 1022.15 1022.40 1022.58 1022.69 1022.73
1019.62 1019.69 1019.75 1019.77 1019.72 1019.57 1019.32 1018.97 1018.55 1018.10 1017.66 1017.27 1016.96 1016.73 1016.57 1016.46 1016.37 1016.27 1016.16 1016.04 1015.92 1015.83 1015.81 1015.89 1016.07 1016.34 1016.69 1017.07 1017.46 1017.80 1018.08 1018.29 1018.42 1018.51 1018.57 1018.65 1018.76 1018.92 1019.15 1019.43 1019.75 1020.09 1020.43 1020.75 1021.05 1021.29 1021.48 1021.60 1021.65
1019.37 1019.55 1019.74 1019.87 1019.91 1019.82 1019.58 1019.21 1018.73 1018.22 1017.72 1017.31 1017.00 1016.82 1016.75 1016.74 1016.75 1016.75 1016.70 1016.59 1016.45 1016.30 1016.20 1016.17 1016.25 1016.44 1016.72 1017.05 1017.39 1017.70 1017.94 1018.09 1018.14 1018.13 1018.09 1018.05 1018.04 1018.09 1018.21 1018.39 1018.64 1018.92 1019.21 1019.50 1019.77 1020.01 1020.20 1020.35 1020.44
1019.12 1019.42 1019.73 1019.97 1020.10 1020.04 1019.80 1019.38 1018.84 1018.26 1017.70 1017.26 1016.96 1016.83 1016.84 1016.94 1017.07 1017.17 1017.19 1017.13 1016.99 1016.81 1016.65 1016.54 1016.53 1016.64 1016.84 1017.11 1017.39 1017.64 1017.81 1017.88 1017.85 1017.73 1017.57 1017.40 1017.26 1017.19 1017.19 1017.28 1017.43 1017.64 1017.88 1018.12 1018.37 1018.60 1018.81 1018.99 1019.13
1018.98 1019.40 1019.82 1020.16 1020.34 1020.30 1020.04 1019.58 1018.97 1018.31 1017.71 1017.23 1016.95 1016.86 1016.95 1017.16 1017.39 1017.59 1017.69 1017.68 1017.55 1017.36 1017.14 1016.97 1016.88 1016.90 1017.02 1017.21 1017.41 1017.58 1017.67 1017.64 1017.50 1017.27 1016.99 1016.69 1016.43 1016.24 1016.13 1016.12 1016.19 1016.32 1016.50 1016.70 1016.92 1017.13 1017.35 1017.56 1017.76
1019.01 1019.53 1020.05 1020.46 1020.68 1020.66 1020.37 1019.86 1019.19 1018.48 1017.84 1017.35 1017.08 1017.03 1017.19 1017.47 1017.79 1018.07 1018.24 1018.26 1018.14 1017.92 1017.66 1017.42 1017.25 1017.18 1017.21 1017.30 1017.40 1017.47 1017.46 1017.33 1017.08 1016.74 1016.34 1015.94 1015.57 1015.28 1015.08 1014.99 1014.98 1015.04 1015.15 1015.30 1015.47 1015.66 1015.87 1016.10 1016.33
1019.23 1019.84 1020.43 1020.89 1021.13 1021.11 1020.81 1020.26 1019.57 1018.82 1018.16 1017.68 1017.42 1017.41 1017.61 1017.95 1018.33 1018.65 1018.84 1018.87 1018.74 1018.49 1018.18 1017.86 1017.61 1017.44 1017.36 1017.33 1017.33 1017.29 1017.16 1016.93 1016.58 1016.15 1015.66 1015.17 1014.73 1014.36 1014.09 1013.92 1013.85 1013.84 1013.88 1013.97 1014.08 1014.23 1014.41 1014.62 1014.86
1019.58 1020.25 1020.89 1021.37 1021.63 1021.61 1021.31 1020.76 1020.07 1019.34 1018.69 1018.23 1018.01 1018.03 1018.25 1018.61 1018.99 1019.31 1019.49 1019.49 1019.33 1019.02 1018.64 1018.24 1017.89 1017.62 1017.43 1017.29 1017.17 1017.02 1016.79 1016.46 1016.03 1015.53 1014.97 1014.43 1013.93 1013.52 1013.20 1012.97 1012.84 1012.76 1012.73 1012.74 1012.78 1012.85 1012.97 1013.13 1013.34
1019.99 1020.69 1021.33 1021.83 1022.09 1022.08 1021.80 1021.29 1020.64 1019.96 1019.38 1018.97 1018.78 1018.82 1019.05 1019.39 1019.73 1020.01 1020.13 1020.07 1019.84 1019.46 1019.01 1018.53 1018.09 1017.72 1017.42 1017.18 1016.95 1016.70 1016.38 1015.97 1015.48 1014.92 1014.33 1013.75 1013.22 1012.77 1012.41 1012.15 1011.95 1011.81 1011.69 1011.61 1011.55 1011.53 1011.56 1011.65 1011.81
1020.33 1021.02 1021.65 1022.14 1022.40 1022.41 1022.17 1021.73 1021.18 1020.60 1020.11 1019.77 1019.64 1019.70 1019.91 1020.21 1020.49 1020.68 1020.71 1020.56 1020.24 1019.79 1019.25 1018.70 1018.18 1017.73 1017.35 1017.02 1016.70 1016.37 1015.97 1015.50 1014.95 1014.36 1013.74 1013.14 1012.59 1012.12 1011.73 1011.41 1011.16 1010.94 1010.74 1010.56 1010.40 1010.27 1010.19 1010.19 1010.27
1020.52 1021.17 1021.76 1022.22 1022.48 1022.52 1022.35 1022.01 1021.58 1021.14 1020.78 1020.54 1020.47 1020.55 1020.73 1020.96 1021.15 1021.24 1021.16 1020.92 1020.51 1019.98 1019.38 1018.77 1018.20 1017.69 1017.25 1016.85 1016.46 1016.06 1015.60 1015.08 1014.49 1013.85 1013.21 1012.59 1012.02 1011.52 1011.09 1010.72 1010.40 1010.11 1009.82 1009.54 1009.28 1009.05 1008.87 1008.77 1008.76
1020.55 1021.12 1021.64 1022.05 1022.30 1022.38 1022.29 1022.08 1021.80 1021.52 1021.30 1021.18 1021.17 1021.27 1021.42 1021.58 1021.67 1021.64 1021.46 1021.12 1020.64 1020.05 1019.41 1018.78 1018.18 1017.64 1017.16 1016.71 1016.27 1015.80 1015.29 1014.71 1014.07 1013.40 1012.72 1012.07 1011.46 1010.92 1010.44 1010.02 1009.63 1009.26 1008.90 1008.53 1008.18 1007.87 1007.60 1007.42 1007.33
Thickness
5731 5731 5729 5719 5697 5675 5677 5688 5695 5699 5703 5710 5711 5707 5702 5700 5696 5699 5719 5720 5719 5716 5711 5708 5703 5698 5694 5691 5688 5685 5682 5679 5677 5675 5673 5671 5669 5668 5667 5666 5665 5664 5664 5663 5663 5663 5663 5663 5663
5731 5730 5722 5706 5681 5666 5674 5690 5695 5701 5708 5710 5711 5710 5707 5708 5715 5719 5719 5718 5718 5715 5710 5707 5702 5697 5693 5689 5686 5682 5679 5677 5674 5672 5669 5667 5666 5664 5662 5661 5660 5659 5659 5658 5657 5657 5657 5657 5657
5732 5728 5710 5692 5677 5671 5683 5697 5700 5706 5708 5709 5708 5709 5709 5712 5718 5720 5721 5717 5715 5712 5708 5705 5700 5695 5691 5687 5684 5680 5677 5674 5671 5668 5666 5664 5662 5660 5658 5657 5656 5654 5654 5653 5652 5652 5651 5651 5651
5728 5716 5702 5686 5683 5686 5691 5699 5702 5703 5708 5709 5706 5705 5710 5720 5721 5720 5719 5715 5712 5709 5705 5702 5698 5693 5689 5685 5681 5678 5674 5671 5668 5666 5663 5661 5659 5657 5655 5653 5651 5650 5649 5648 5647 5647 5646 5646 5645
5722 5705 5689 5677 5683 5691 5697 5701 5703 5703 5704 5706 5704 5702 5706 5720 5719 5717 5715 5712 5710 5706 5702 5699 5696 5691 5687 5683 5679 5676 5672 5669 5666 5663 5660 5658 5655 5653 5651 5649 5647 5645 5644 5643 5642 5641 5641 5640 5640
5707 5695 5676 5672 5681 5691 5697 5703 5703 5702 5703 5705 5702 5701 5708 5718 5716 5714 5712 5709 5706 5703 5699 5696 5693 5689 5685 5681 5677 5673 5670 5666 5663 5660 5657 5655 5652 5650 5647 5645 5643 5641 5640 5639 5637 5636 5635 5634 5634
5701 5687 5679 5681 5679 5686 5700 5706 5704 5704 5702 5705 5706 5701 5710 5716 5714 5711 5707 5704 5701 5698 5696 5693 5691 5687 5683 5679 5675 5671 5667 5664 5660 5657 5654 5652 5649 5647 5644 5641 5639 5637 5636 5634 5633 5631 5630 5629 5628
5704 5689 5683 5677 5679 5685 5701 5706 5709 5706 5705 5711 5707 5701 5705 5713 5707 5705 5702 5698 5696 5694 5692 5690 5688 5685 5681 5677 5673 5669 5665 5661 5658 5654 5651 5648 5646 5643 5640 5638 5636 5633 5632 5630 5628 5627 5625 5624 5623
5706 5683 5674 5680 5683 5690 5701 5702 5707 5712 5708 5708 5707 5709 5712 5705 5701 5698 5695 5692 5690 5690 5689 5688 5685 5682 5679 5675 5671 5667 5662 5659 5655 5651 5648 5645 5642 5639 5636 5634 5631 5629 5627 5625 5623 5622 5620 5619 5618
5695 5676 5682 5691 5693 5696 5699 5699 5702 5703 5701 5703 5706 5709 5705 5700 5698 5696 5694 5692 5691 5690 5688 5686 5683 5680 5676 5672 5668 5664 5660 5656 5652 5648 5644 5641 5638 5634 5631 5629 5626 5624 5622 5620 5619 5617 5615 5614 5612
5696 5686 5691 5696 5699 5698 5696 5698 5702 5699 5696 5701 5703 5707 5703 5697 5694 5695 5695 5695 5696 5692 5687 5684 5681 5677 5673 5670 5665 5661 5657 5653 5649 5644 5640 5637 5633 5629 5626 5623 5621 5619 5617 5615 5613 5611 5610 5608 5606
5693 5692 5694 5696 5700 5698 5697 5698 5698 5696 5701 5708 5706 5705 5700 5695 5694 5696 5696 5695 5692 5688 5686 5683 5678 5674 5670 5666 5662 5658 5653 5649 5645 5641 5636 5632 5628 5624 5621 5618 5615 5613 5611 5609 5607 5605 5603 5601 5599
5689 5690 5694 5696 5694 5693 5693 5691 5693 5696 5702 5702 5703 5702 5698 5695 5695 5697 5697 5694 5689 5686 5683 5680 5675 5671 5666 5662 5658 5654 5649 5645 5641 5637 5632 5628 5623 5619 5615 5612 5609 5607 5604 5602 5600 5598 5596 5594 5593
5688 5687 5686 5689 5691 5692 5691 5691 5689 5696 5698 5698 5698 5696 5695 5694 5694 5694 5693 5692 5690 5687 5682 5677 5673 5668 5663 5659 5654 5650 5645 5641 5636 5632 5628 5624 5620 5615 5611 5607 5604 5601 5599 5596 5594 5592 5590 5588 5586
5684 5680 5682 5689 5690 5691 5689 5684 5687 5693 5692 5691 5689 5689 5691 5691 5692 5691 5692 5692 5691 5687 5682 5676 5671 5665 5660 5656 5651 5646 5641 5636 5632 5628 5624 5620 5615 5611 5607 5603 5599 5596 5593 5591 5588 5585 5582 5580 5579
5679 5670 5670 5681 5683 5686 5683 5672 5686 5687 5685 5683 5682 5682 5684 5687 5688 5689 5690 5690 5689 5685 5679 5674 5669 5663 5657 5652 5647 5642 5637 5632 5628 5623 5619 5615 5611 5607 5602 5598 5595 5592 5588 5585 5581 5578 5575 5573 5572
5663 5657 5661 5667 5678 5677 5675 5670 5680 5681 5678 5677 5675 5675 5677 5681 5684 5685 5686 5686 5685 5681 5676 5671 5666 5661 5654 5648 5642 5637 5632 5627 5623 5619 5614 5610 5606 5602 5598 5595 5592 5587 5582 5579 5576 5573 5569 5568 5566
5659 5658 5656 5656 5668 5668 5665 5664 5672 5674 5673 5670 5669 5669 5671 5673 5674 5677 5679 5680 5678 5675 5671 5666 5661 5656 5649 5642 5636 5630 5626 5622 5618 5614 5610 5606 5601 5597 5593 5590 5586 5581 5576 5572 5569 5567 5564 5562 5560
5661 5655 5649 5653 5663 5662 5660 5659 5665 5668 5669 5667 5665 5663 5663 5665 5668 5670 5671 5670 5669 5666 5663 5659 5654 5649 5642 5635 5629 5623 5620 5617 5613 5609 5606 5601 5597 5593 5588 5585 5581 5576 5572 5569 5565 5560 5555 5553 5547
5655 5650 5647 5652 5660 5658 5654 5656 5663 5667 5666 5664 5661 5658 5657 5659 5662 5663 5662 5660 5658 5656 5653 5650 5647 5642 5637 5632 5625 5619 5616 5612 5609 5605 5601 5598 5594 5589 5584 5580 5577 5572 5567 5563 5559 5553 5548 5546 5539
5655 5649 5650 5651 5651 5653 5651 5657 5662 5665 5663 5661 5658 5655 5652 5652 5650 5651 5652 5650 5648 5646 5643 5643 5639 5635 5630 5625 5618 5613 5608 5604 5601 5599 5597 5595 5590 5585 5581 5577 5573 5568 5562 5559 5554 5548 5542 5539 5534
5648 5656 5652 5649 5641 5635 5641 5635 5651 5654 5655 5656 5654 5649 5647 5645 5644 5643 5642 5641 5639 5636 5635 5633 5631 5627 5623 5618 5613 5607 5602 5600 5600 5597 5593 5590 5585 5581 5577 5572 5568 5563 5558 5554 5550 5544 5538 5531 5528
5655 5656 5650 5644 5638 5631 5632 5629 5638 5647 5649 5650 5649 5646 5643 5640 5637 5636 5634 5633 5631 5628 5626 5624 5622 5619 5615 5611 5606 5600 5597 5596 5594 5590 5586 5583 5580 5576 5572 5567 5562 5557 5552 5549 5544 5539 5532 5527 5522
5655 5647 5638 5628 5624 5627 5632 5626 5632 5636 5643 5645 5644 5641 5638 5634 5631 5628 5627 5625 5623 5620 5618 5616 5614 5611 5607 5602 5598 5593 5589 5587 5584 5581 5578 5576 5572 5568 5564 5559 5555 5550 5546 5541 5537 5531 5525 5520 5516
5646 5634 5623 5627 5619 5623 5626 5621 5626 5641 5640 5639 5637 5634 5631 5627 5622 5619 5617 5615 5612 5610 5608 5606 5604 5601 5597 5593 5589 5585 5581 5577 5574 5572 5569 5566 5563 5560 5556 5551 5546 5541 5537 5532 5527 5521 5517 5511 5506
5641 5632 5619 5615 5610 5610 5617 5616 5629 5637 5633 5633 5631 5627 5623 5619 5614 5611 5608 5604 5602 5600 5598 5596 5593 5591 5588 5584 5580 5576 5572 5567 5564 5561 5558 5554 5552 5550 5546 5540 5536 5531 5526 5521 5515 5510 5506 5500 5496
5633 5624 5622 5606 5604 5600 5607 5614 5625 5633 5629 5626 5623 5619 5614 5609 5606 5602 5599 5596 5593 5590 5588 5584 5582 5580 5577 5573 5569 5566 5561 5557 5553 5550 5545 5542 5539 5536 5532 5527 5522 5517 5512 5507 5502 5497 5494 5488 5485
5634 5618 5606 5601 5600 5598 5603 5607 5613 5623 5620 5617 5614 5609 5605 5601 5597 5593 5589 5586 5583 5579 5576 5573 5570 5567 5564 5561 5557 5554 5549 5544 5540 5535 5531 5527 5524 5519 5515 5510 5505 5501 5496 5491 5485 5482 5479 5474 5472
5621 5616 5606 5593 5591 5587 5588 5605 5619 5617 5614 5608 5603 5600 5596 5592 5587 5582 5578 5575 5571 5568 5565 5561 5558 5554 5551 5547 5543 5539 5534 5530 5525 5519 5515 5510 5506 5501 5496 5492 5487 5483 5478 5473 5467 5465 5461 5456 5455
5622 5615 5602 5598 5591 5578 5575 5598 5615 5608 5604 5599 5594 5591 5587 5582 5577 5572 5568 5564 5560 5557 5553 5549 5545 5540 5537 5532 5528 5523 5519 5513 5508 5503 5498 5492 5487 5482 5476 5472 5468 5463 5459 5454 5448 5446 5443 5439 5438